Topeka, KS

7:50 AM CST on January 21, 2018 (GMT -0600)
Billard Municipal

Weather History for KTOP - May, 2013

Change the Weather History Date:

Thursday, May 9, 2013

  Actual Average Record
Temperature  
Mean Temperature 67 °F 63 °F  
Max Temperature 75 °F 74 °F 95 °F (2011)
Min Temperature 58 °F 52 °F 30 °F (1980)
Degree Days  
Heating Degree Days 0 4  
Month to date heating degree days 99 46  
Since 1 July heating degree days 4862 4963  
Cooling Degree Days 2 2  
Month to date cooling degree days 4 16  
Year to date cooling degree days 20 44  
Growing Degree Days 16 (Base 50)    
Moisture  
Dew Point 57 °F    
Average Humidity 75    
Maximum Humidity 93    
Minimum Humidity 57    
Precipitation  
Precipitation 0.01 in 0.15 in 1.20 in (1921)
Month to date precipitation 1.38 1.38  
Year to date precipitation 8.95 9.58  
Snow  
Snow 0.00 in 0.00 in T in (1951)
Month to date snowfall T 0.0  
Year to date snowfall 24.2 11.3  
Since 1 July snowfall 29.6 17.8  
Snow Depth 0.00 in    
Sea Level Pressure  
Sea Level Pressure 29.89 in    
Wind  
Wind Speed 7 mph (West)    
Max Wind Speed 15 mph    
Max Gust Speed 20 mph    
Visibility 10 miles    
Events Rain , Thunderstorm    
T = Trace of Precipitation, MM = Missing Value Source: NWS Daily Summary

Daily Weather History Graph

Daily Weather History Graph

Search for Another Location

Airport or City:

Trip Planner

Search our weather history database for the weather conditions in past years. The results will help you decide how hot, cold, wet, or windy it might be!

Date:

Astronomy

May. 09, 2013 Rise Set
Actual Time 6:15 AM CDT 8:23 PM CDT
Civil Twilight 5:45 AM CDT 8:53 PM CDT
Nautical Twilight 5:09 AM CDT 9:29 PM CDT
Astronomical Twilight 4:29 AM CDT 10:08 PM CDT
Moon 5:59 AM CDT (5/9) 8:19 PM CDT (5/9)
Length of Visible Light 15h 07m
Length of Day
14h 08m
Waning Crescent, 0% of the Moon is Illuminated
May 9
Waning Crescent
May 9
New
May 17
First Quarter
May 24
Full
May 31
Last Quarter

Hourly Weather History & Observations

Time (CDT) Temp. Dew Point Humidity Pressure Visibility Wind Dir Wind Speed Gust Speed Precip Events Conditions
12:53 AM 63.0 °F 60.1 °F 90% 29.90 in 9.0 mi Calm Calm - 0.02 in Rain Light Rain
1:32 AM 63.0 °F 60.1 °F 90% 29.92 in 10.0 mi South 4.6 mph - 0.00 in Thunderstorm Thunderstorm
1:53 AM 64.0 °F 55.9 °F 75% 29.89 in 10.0 mi West 11.5 mph 20.7 mph 0.00 in Rain Light Rain
2:53 AM 61.0 °F 57.0 °F 87% 29.89 in 10.0 mi West 3.5 mph - 0.00 in   Overcast
3:53 AM 60.1 °F 57.0 °F 90% 29.86 in 10.0 mi SE 4.6 mph - 0.00 in Rain Light Rain
4:53 AM 60.1 °F 57.0 °F 90% 29.85 in 10.0 mi SSW 4.6 mph - 0.01 in   Clear
5:53 AM 59.0 °F 57.0 °F 93% 29.84 in 10.0 mi South 4.6 mph - N/A   Scattered Clouds
6:53 AM 59.0 °F 57.0 °F 93% 29.86 in 10.0 mi Calm Calm - N/A   Partly Cloudy
7:53 AM 60.1 °F 57.9 °F 93% 29.88 in 9.0 mi NW 3.5 mph - N/A   Clear
8:53 AM 62.1 °F 57.9 °F 86% 29.88 in 10.0 mi SSW 4.6 mph - N/A   Clear
9:53 AM 66.0 °F 55.9 °F 70% 29.89 in 10.0 mi WSW 8.1 mph - N/A   Clear
10:53 AM 66.9 °F 55.9 °F 68% 29.90 in 10.0 mi WSW 6.9 mph - N/A   Clear
11:53 AM 69.8 °F 55.4 °F 60% 29.91 in 10.0 mi WSW 6.9 mph - N/A   Mostly Cloudy
12:53 PM 69.1 °F 55.9 °F 63% 29.90 in 10.0 mi West 8.1 mph - N/A   Overcast
1:53 PM 71.1 °F 59.0 °F 66% 29.90 in 10.0 mi WNW 9.2 mph - N/A   Overcast
2:53 PM 71.1 °F 59.0 °F 66% 29.88 in 10.0 mi NW 9.2 mph 19.6 mph N/A   Overcast
3:53 PM 73.9 °F 60.1 °F 62% 29.88 in 10.0 mi NW 12.7 mph - N/A   Mostly Cloudy
4:53 PM 73.0 °F 57.9 °F 59% 29.89 in 10.0 mi NW 10.4 mph - N/A   Partly Cloudy
5:53 PM 71.1 °F 57.0 °F 61% 29.89 in 10.0 mi NW 9.2 mph - N/A   Mostly Cloudy
6:53 PM 71.1 °F 57.0 °F 61% 29.89 in 10.0 mi NW 11.5 mph - N/A   Partly Cloudy
7:53 PM 66.9 °F 55.9 °F 68% 29.91 in 10.0 mi NW 6.9 mph - N/A   Clear
8:53 PM 64.4 °F 57.2 °F 77% 29.93 in 10.0 mi NW 8.1 mph - N/A   Clear
9:53 PM 61.0 °F 55.9 °F 83% 29.92 in 10.0 mi NW 5.8 mph - N/A   Clear
10:53 PM 61.0 °F 55.9 °F 83% 29.94 in 10.0 mi WNW 5.8 mph - N/A   Clear
11:53 PM 59.0 °F 55.0 °F 87% 29.96 in 8.0 mi West 4.6 mph - N/A   Clear